User: anonymous   Login
Location: D�derode
(51.8092°N, 10.1065°E)
Time: 20:44:46
(UTC+00:00)
Language:

Meteor 1-10 Rocket - Orbit

View from above orbital plane
View from above orbital plane
View from above satellite
View from above satellite

Ground track
Ground track

The orbit data is extracted from the following two-line orbital elements,

1 05732U 71120B   21055.30056565  .00000018  00000-0  36804-5 0  9996
2 05732  81.2487 260.8444 0050939 212.3273 147.4772 14.05999244520223
Epoch (UTC): 24 February 2021 07:12:48
Eccentricity: 0.0050939
inclination: 81.2487°
perigee height: 836 km
apogee height: 910 km
right ascension of ascending node: 260.8444°
argument of perigee: 212.3273°
revolutions per day: 14.05999244
mean anomaly at epoch: 147.4772°
orbit number at epoch: 52022

The dashed part of the orbit path shows where the satellite is in the earth's shadow,  

DLR